Flag for India Weather past 2 weeks in Ahmedabad, Gujarat, India

Now
95 °F

Partly sunny.


Feels Like: 110 °F
Forecast: 80 / 93 °F
Wind: 6 mph from Southwest

Location: Ahmadabad Airport

Current Time: Aug 31, 2015 at 5:15:39 PM

Latest Report: Aug 31, 2015 at 4:10 PM


Visibility: 4 mi

Pressure: 29.65 "Hg

Humidity: 56%

Dew point: 77 °F

Location of AhmedabadLocation

Historic Weather in Ahmedabad — Graph

°F

Ahmedabad temperature yesterday

Maximum temperature yesterday: 97 °F (at 3:40 PM)
Minimum temperature yesterday: 82 °F (at 4:10 AM)
Average temperature yesterday: 89 °F

Past Weeks' High & Low Weather Summary

 TemperatureHumidityPressure
High99 °F (Aug 29, 4:40 PM)94% (Aug 18, 6:10 PM)29.83 "Hg (Aug 18, 6:10 PM)
Low79 °F (Aug 18, 6:10 PM)44% (Aug 21, 4:40 PM)29.62 "Hg (Aug 17, 3:40 PM)
Average87 °F71%29.71 "Hg
* Reported Aug 16 3:40 PM — Aug 31 4:10 PM, Ahmedabad, Weather by CustomWeather, © 2015

Note: Actual official high and low records may vary slightly from our data, if they occured in-between our weather recording intervals... More about our weather records

Advertising

Ahmedabad weather history for previous 24 hours

 ConditionsComfort  
Time TempWeatherWind HumidityBarometerVisibility
4:10 PM
Mon, Aug 31
95 °FPartly sunny.6 mph56%29.65 "Hg4 mi
3:40 PM95 °FScattered clouds.3 mph56%29.68 "Hg4 mi
3:10 PM95 °FScattered clouds.3 mph56%29.68 "Hg4 mi
2:40 PM93 °FScattered clouds.5 mph59%29.71 "Hg4 mi
2:10 PM93 °FScattered clouds.5 mph59%29.71 "Hg4 mi
1:10 PM93 °FScattered clouds.7 mph59%29.74 "Hg3 mi
12:40 PM91 °FScattered clouds.7 mph63%29.77 "Hg3 mi
11:40 AM90 °FScattered clouds.7 mph67%29.77 "Hg3 mi
10:40 AM88 °FScattered clouds.8 mph70%29.80 "Hg3 mi
9:10 AM84 °FBroken clouds.9 mph74%29.80 "Hg2 mi
8:40 AM82 °FBroken clouds.6 mph79%29.77 "Hg2 mi
8:10 AM82 °FBroken clouds.5 mph84%29.77 "Hg2 mi
7:40 AM82 °FDrizzle. Broken clouds.5 mph79%29.77 "Hg2 mi
7:10 AM82 °FDrizzle. Broken clouds.6 mph79%29.74 "Hg2 mi
6:40 AM82 °FPartly cloudy.3 mph74%29.74 "Hg2 mi
5:10 AM82 °FPartly cloudy.6 mph79%29.71 "Hg2 mi
4:40 AM84 °FPartly cloudy.6 mph74%29.71 "Hg2 mi
3:40 AM82 °FPassing clouds.7 mph79%29.68 "Hg2 mi
2:10 AM84 °FHaze.9 mph74%29.68 "Hg2 mi
1:40 AM84 °FHaze.8 mph74%29.71 "Hg2 mi
12:40 AM84 °FHaze.9 mph79%29.71 "Hg2 mi
12:10 AM84 °FPassing clouds.8 mph79%29.71 "Hg2 mi
10:40 PM
Sun, Aug 30
86 °FHaze.10 mph75%29.71 "Hg2 mi
9:40 PM86 °FHaze.10 mph75%29.68 "Hg2 mi
9:10 PM88 °FHaze.7 mph75%29.68 "Hg2 mi
8:40 PM88 °FHaze.8 mph70%29.65 "Hg2 mi
7:40 PM88 °FHaze.6 mph62%29.65 "Hg2 mi
5:40 PM95 °FPassing clouds.8 mph53%29.62 "Hg4 mi
Weather by CustomWeather, © 2015

See weather overviewHow to use our weather pages